[[{"header":{"parameterUnit":"m.s-1","parameterCategory":1,"la1":30.2991,"la2":30.254,"lo1":-89.0895,"lo2":-89.0444,"dy":0.0017,"dx":0.0017,"nx":28,"ny":28,"refTime":"2023-08-24T21:00:00:Z","depth":0,"parameterNumber":2,"parameterNumberName":"U-component_of_WINDS"},"data":[0,0,0,0,0,0,0,0,0,0,0,0,0,0,0,0,0,0,0,0,0,0,0,0,0,0,0,0,0,0,0,0,0,0,0,0,0,0,0,0,0,0,0,0,0,0,0,0,0,0,0,0,0,0,0,0,0,0,-0.8035,-0.8034,0,-0.7992,-0.7992,-0.7991,-0.794,-0.7939,-0.7938,-0.7937,-0.7894,-0.7893,-0.7893,0,0,0,0,0,0,0,0,0,0,0,0,0,-0.8071,-0.807,-0.8035,-0.8034,-0.8034,-0.7993,-0.7992,-0.7991,-0.794,-0.7939,-0.7938,-0.7937,-0.7894,-0.7893,-0.7893,0,0,0,0,0,0,0,0,0,0,0,0,0,-0.8044,-0.807,-0.8035,-0.8003,-0.8,-0.7993,-0.7992,-0.7991,-0.794,-0.7939,-0.7938,-0.7937,-0.7894,-0.7893,-0.7893,-0.7913,0,0,-0.7891,-0.7891,0,0,0,0,0,0,0,0,-0.8046,-0.8043,-0.8008,-0.8005,-0.8002,-0.797,-0.7988,-0.7965,-0.794,-0.7963,-0.7937,-0.7936,-0.792,-0.7917,-0.7912,-0.7911,-0.7909,-0.7891,-0.7891,-0.789,-0.789,0,0,0,0,0,0,0,-0.8048,-0.8045,-0.8018,-0.8008,-0.8004,-0.7991,-0.7986,-0.7984,-0.7949,-0.7961,-0.7957,-0.7953,-0.7918,-0.7913,-0.7911,-0.7909,-0.7891,-0.789,-0.789,-0.789,-0.7923,-0.7924,0,0,0,0,0,0,-0.8054,-0.8046,-0.8019,-0.8017,-0.8021,-0.7991,-0.7985,-0.7981,-0.7949,-0.7942,-0.7954,-0.795,-0.7914,-0.7911,-0.7909,-0.7931,-0.789,-0.789,-0.7889,-0.7922,-0.7923,-0.7925,0,0,0,0,0,0,-0.8055,-0.8052,-0.8021,-0.8031,-0.8026,-0.7992,-0.7988,-0.7981,-0.7976,-0.7943,-0.7937,-0.7955,-0.7913,-0.791,-0.7913,-0.7929,-0.7889,-0.7889,-0.792,-0.7922,-0.7924,-0.7976,0,0,0,0,0,0,-0.8057,-0.8053,-0.8061,-0.8031,-0.8025,-0.8026,-0.7989,-0.7981,-0.7975,-0.797,-0.7943,-0.7937,-0.7912,-0.7914,-0.7912,-0.7927,-0.7888,-0.7919,-0.7921,-0.7923,-0.7972,-0.7979,-0.7985,0,0,0,0,0,-0.8058,-0.8077,-0.8061,-0.8058,-0.8034,-0.8027,-0.8024,-0.7995,-0.7977,-0.7984,-0.7963,-0.7938,-0.7927,-0.7915,-0.7912,-0.7927,-0.7918,-0.7921,-0.7923,-0.7969,-0.7978,-0.7984,0,0,0,0,0,0,-0.8109,-0.8072,-0.8055,-0.8064,-0.8049,-0.8018,-0.8026,-0.8004,-0.7994,-0.799,-0.7954,-0.7949,-0.7956,-0.7942,-0.7928,-0.7946,-0.7919,-0.7921,-0.7955,-0.7962,-0.7968,-0.7972,-0.7888,0,0,0,0,0,-0.8121,-0.8119,-0.8087,-0.8098,-0.8092,-0.8061,-0.8056,-0.8036,-0.8018,-0.8012,-0.7991,-0.7975,-0.7968,-0.7964,-0.7956,-0.797,-0.7963,-0.7979,-0.7985,-0.799,-0.7993,-0.8,-0.8006,-0.7934,-0.7934,-0.7934,0,0,-0.8147,-0.8126,-0.8127,-0.8108,-0.8094,-0.8092,-0.8055,-0.8055,-0.8053,-0.8011,-0.8013,-0.7997,-0.7977,-0.7986,-0.7989,-0.7974,-0.8012,-0.7994,-0.7999,-0.7998,-0.8003,-0.801,-0.8016,-0.7936,-0.7936,-0.7935,0,0,-0.8192,-0.8177,-0.8185,-0.8171,-0.815,-0.8129,-0.8131,-0.8104,-0.8092,-0.8093,-0.8062,-0.8059,-0.8048,-0.8035,-0.8027,-0.8068,-0.8044,-0.8066,-0.8099,-0.8105,-0.8111,-0.8116,-0.8131,-0.8137,-0.8069,-0.8069,-0.8069,0,-0.8227,-0.8223,-0.8192,-0.8193,-0.8186,-0.8148,-0.8156,-0.8144,-0.8122,-0.8118,-0.8102,-0.8087,-0.8071,-0.8076,-0.8086,-0.8081,-0.8082,-0.8069,-0.8113,-0.8117,-0.8121,-0.8135,-0.8141,-0.8072,-0.8071,-0.8071,-0.8071,0,-0.8266,-0.8264,-0.8273,-0.8252,-0.8246,-0.8251,-0.822,-0.8218,-0.8197,-0.8178,-0.818,-0.8159,-0.8146,-0.8146,-0.8126,-0.8149,-0.814,-0.8119,-0.8092,-0.8132,-0.8144,-0.8149,-0.8076,-0.8075,-0.8074,-0.8073,0,0,-0.8342,-0.8305,-0.8309,-0.8299,-0.8273,-0.8271,-0.8274,-0.8261,-0.826,-0.8245,-0.8247,-0.8239,-0.8219,-0.821,-0.8188,-0.8194,-0.8229,-0.8172,-0.8171,-0.8184,-0.8252,-0.8269,-0.8276,-0.8213,-0.8214,-0.8214,-0.8254,0,-0.8383,-0.8387,-0.8359,-0.837,-0.8368,-0.8332,-0.8334,-0.8319,-0.8301,-0.8296,-0.8277,-0.8271,-0.8246,-0.824,-0.8244,-0.8224,-0.8242,-0.822,-0.8214,-0.8214,-0.8221,-0.8282,-0.8299,-0.8338,-0.8259,-0.826,-0.826,0,-0.8432,-0.8421,-0.8431,-0.8405,-0.8403,-0.8406,-0.8393,-0.8388,-0.837,-0.8357,-0.8347,-0.8322,-0.8323,-0.8297,-0.8298,-0.8284,-0.828,-0.8269,-0.827,-0.8269,-0.824,-0.8283,-0.8349,-0.8356,-0.8267,-0.8267,-0.8266,0,-0.8487,-0.8474,-0.8479,-0.8472,-0.8442,-0.8445,-0.8432,-0.8412,-0.8407,-0.8395,-0.8391,-0.8379,-0.8373,-0.8365,-0.8337,-0.8321,-0.8342,-0.8313,-0.8331,-0.8332,-0.8338,-0.8338,-0.8405,-0.8334,-0.8334,-0.8334,-0.8334,0,-0.8536,-0.8544,-0.8504,-0.8507,-0.8515,-0.8483,-0.8492,-0.8475,-0.8458,-0.8458,-0.8426,-0.8426,-0.8389,-0.8385,-0.8364,-0.8369,-0.8366,-0.8355,-0.835,-0.8358,-0.836,-0.8355,-0.8352,-0.8336,-0.8335,-0.8335,-0.8335,0,-0.8599,-0.8572,-0.8576,-0.8546,-0.8539,-0.8547,-0.8522,-0.8523,-0.8504,-0.8503,-0.8501,-0.847,-0.8464,-0.8436,-0.8423,-0.8408,-0.842,-0.8409,-0.8427,-0.8423,-0.8443,-0.8441,-0.851,-0.8518,-0.8442,-0.8443,-0.8443,0,-0.8632,-0.8638,-0.861,-0.8607,-0.8596,-0.8592,-0.8586,-0.8555,-0.855,-0.853,-0.8534,-0.8525,-0.8516,-0.8508,-0.8484,-0.8474,-0.8462,-0.8487,-0.846,-0.8469,-0.8463,-0.8463,-0.8464,-0.8493,-0.8494,-0.8494,-0.8495,0,-0.8694,-0.8681,-0.8674,-0.8663,-0.8657,-0.8646,-0.8634,-0.8633,-0.8598,-0.8595,-0.8588,-0.8581,-0.8568,-0.8559,-0.8545,-0.8532,-0.8508,-0.8504,-0.8507,-0.8517,-0.8527,-0.8522,-0.8443,-0.8502,-0.8502,-0.8501,-0.8501,-0.85,-0.8744,-0.8747,-0.8728,-0.8721,-0.8709,-0.8698,-0.8698,-0.8678,-0.8672,-0.8659,-0.8641,-0.8637,-0.8618,-0.8597,-0.8586,-0.8582,-0.8568,-0.8573,-0.8575,-0.8577,-0.8581,-0.8527,-0.8579,-0.8579,-0.8578,-0.8578,-0.8578,0,-0.8805,-0.879,-0.8785,-0.8768,-0.8763,-0.8741,-0.8726,-0.8723,-0.872,-0.8705,-0.8697,-0.8689,-0.8681,-0.8657,-0.8646,-0.8648,-0.8637,-0.8646,-0.8646,-0.8644,-0.8594,-0.8592,-0.8656,-0.8656,-0.8656,-0.8656,-0.8656,-0.8656,-0.8836,-0.884,-0.8825,-0.8823,-0.8808,-0.8804,-0.8798,-0.8787,-0.8775,-0.8768,-0.8761,-0.8746,-0.8727,-0.8715,-0.8706,-0.8699,-0.8697,-0.8711,-0.87,-0.8654,-0.8647,-0.864,-0.8638,-0.871,-0.871,-0.875,-0.8751,-0.8751]},{"header":{"parameterUnit":"m.s-1","parameterCategory":1,"la1":30.2991,"la2":30.254,"lo1":-89.0895,"lo2":-89.0444,"dy":0.0017,"dx":0.0017,"nx":28,"ny":28,"refTime":"2023-08-24T21:00:00:Z","depth":0,"parameterNumber":3,"parameterNumberName":"V-component_of_WINDS"},"data":[0,0,0,0,0,0,0,0,0,0,0,0,0,0,0,0,0,0,0,0,0,0,0,0,0,0,0,0,0,0,0,0,0,0,0,0,0,0,0,0,0,0,0,0,0,0,0,0,0,0,0,0,0,0,0,0,0,0,-1.2975,-1.2975,0,-1.3026,-1.3027,-1.3027,-1.3022,-1.3022,-1.3021,-1.302,-1.3074,-1.3076,-1.3078,0,0,0,0,0,0,0,0,0,0,0,0,0,-1.2874,-1.2876,-1.2975,-1.2976,-1.2976,-1.3026,-1.3027,-1.3028,-1.3023,-1.3022,-1.3021,-1.302,-1.3073,-1.3076,-1.3078,0,0,0,0,0,0,0,0,0,0,0,0,0,-1.2921,-1.2876,-1.2975,-1.298,-1.2981,-1.3026,-1.3027,-1.3028,-1.3023,-1.3022,-1.302,-1.3019,-1.3072,-1.3076,-1.3079,-1.3123,0,0,-1.3089,-1.309,0,0,0,0,0,0,0,0,-1.2918,-1.2925,-1.2978,-1.2979,-1.298,-1.3017,-1.3011,-1.306,-1.3023,-1.3007,-1.302,-1.3019,-1.3056,-1.306,-1.3073,-1.3126,-1.3128,-1.3089,-1.3091,-1.3093,-1.3093,0,0,0,0,0,0,0,-1.2915,-1.2922,-1.2995,-1.2979,-1.298,-1.298,-1.2985,-1.302,-1.3038,-1.3008,-1.3008,-1.3014,-1.3056,-1.307,-1.3074,-1.3129,-1.3089,-1.3092,-1.3094,-1.3095,-1.3222,-1.3223,0,0,0,0,0,0,-1.291,-1.292,-1.2994,-1.2997,-1.2946,-1.2983,-1.2988,-1.3006,-1.3037,-1.3041,-1.3015,-1.3013,-1.3065,-1.307,-1.3076,-1.3131,-1.3092,-1.3096,-1.3097,-1.3221,-1.3222,-1.3224,0,0,0,0,0,0,-1.2908,-1.2917,-1.2992,-1.2958,-1.2968,-1.2986,-1.3006,-1.3008,-1.3021,-1.3042,-1.3045,-1.3025,-1.3064,-1.3071,-1.3112,-1.3133,-1.3097,-1.31,-1.3219,-1.3221,-1.3223,-1.3241,0,0,0,0,0,0,-1.2905,-1.2916,-1.2933,-1.2959,-1.2969,-1.3026,-1.3007,-1.301,-1.3027,-1.3025,-1.3053,-1.3056,-1.3064,-1.3107,-1.3115,-1.3137,-1.3103,-1.3217,-1.322,-1.3222,-1.3239,-1.3243,-1.3248,0,0,0,0,0,-1.2902,-1.2936,-1.2934,-1.2943,-1.2991,-1.3027,-1.3034,-1.3041,-1.3028,-1.3046,-1.3059,-1.3055,-1.3129,-1.3111,-1.312,-1.3143,-1.3216,-1.3219,-1.3222,-1.3237,-1.3243,-1.3248,0,0,0,0,0,0,-1.2913,-1.2939,-1.2937,-1.2981,-1.3002,-1.3026,-1.3048,-1.3047,-1.3072,-1.307,-1.3078,-1.3084,-1.3125,-1.3138,-1.3118,-1.3188,-1.3171,-1.3176,-1.3179,-1.3184,-1.3189,-1.3186,-1.3105,0,0,0,0,0,-1.292,-1.2947,-1.2969,-1.3005,-1.3016,-1.303,-1.3047,-1.305,-1.3073,-1.3082,-1.3098,-1.312,-1.3149,-1.3167,-1.3194,-1.324,-1.3247,-1.326,-1.3265,-1.3268,-1.3273,-1.33,-1.3307,-1.3234,-1.3234,-1.3234,0,0,-1.2936,-1.2954,-1.297,-1.3008,-1.3025,-1.3053,-1.3038,-1.3068,-1.309,-1.3086,-1.3126,-1.3139,-1.3164,-1.3208,-1.3228,-1.322,-1.3295,-1.3272,-1.3275,-1.3278,-1.3304,-1.3311,-1.3317,-1.3236,-1.3236,-1.3236,0,0,-1.2979,-1.2995,-1.3027,-1.3045,-1.307,-1.3079,-1.3087,-1.3112,-1.3121,-1.316,-1.3158,-1.3184,-1.3232,-1.3251,-1.3266,-1.3317,-1.3315,-1.3326,-1.335,-1.3375,-1.3381,-1.3386,-1.3406,-1.3412,-1.333,-1.333,-1.333,0,-1.2996,-1.3038,-1.3044,-1.3076,-1.3093,-1.309,-1.3124,-1.314,-1.3173,-1.3186,-1.3176,-1.3237,-1.3253,-1.3302,-1.3315,-1.3327,-1.3337,-1.3323,-1.338,-1.3385,-1.339,-1.3408,-1.3416,-1.3331,-1.3331,-1.3331,-1.3331,0,-1.3058,-1.3088,-1.3111,-1.3143,-1.3162,-1.3195,-1.3206,-1.3226,-1.3228,-1.3238,-1.3279,-1.3299,-1.3331,-1.3342,-1.3344,-1.3391,-1.3386,-1.3378,-1.3361,-1.3398,-1.3416,-1.3423,-1.3333,-1.3333,-1.3332,-1.3332,0,0,-1.3111,-1.3146,-1.3154,-1.3169,-1.3197,-1.3221,-1.3253,-1.3283,-1.33,-1.3323,-1.3351,-1.3392,-1.3385,-1.3403,-1.3407,-1.3429,-1.347,-1.3419,-1.342,-1.3429,-1.3525,-1.3532,-1.354,-1.3468,-1.347,-1.3471,-1.3523,0,-1.3158,-1.3215,-1.3222,-1.3273,-1.3301,-1.3299,-1.3327,-1.3348,-1.3359,-1.3385,-1.3397,-1.3426,-1.3414,-1.3425,-1.3447,-1.3461,-1.349,-1.3457,-1.3496,-1.3497,-1.3491,-1.3549,-1.3556,-1.3605,-1.353,-1.3531,-1.3532,0,-1.3221,-1.3246,-1.33,-1.3325,-1.3337,-1.3362,-1.3391,-1.3415,-1.3439,-1.3445,-1.3465,-1.3467,-1.3501,-1.3482,-1.353,-1.3507,-1.3523,-1.3532,-1.3534,-1.354,-1.3518,-1.3557,-1.362,-1.3628,-1.3543,-1.3542,-1.3541,0,-1.3256,-1.3302,-1.3341,-1.3354,-1.3383,-1.3401,-1.3415,-1.3437,-1.3455,-1.348,-1.3493,-1.3522,-1.3538,-1.356,-1.357,-1.3555,-1.3618,-1.3599,-1.3625,-1.3625,-1.364,-1.3639,-1.3708,-1.3648,-1.3648,-1.3648,-1.3647,0,-1.3309,-1.3342,-1.3357,-1.3381,-1.3419,-1.3426,-1.3463,-1.3476,-1.3496,-1.3523,-1.3522,-1.3548,-1.3558,-1.3586,-1.3593,-1.3632,-1.3639,-1.3646,-1.3648,-1.3647,-1.3646,-1.3659,-1.3656,-1.365,-1.3649,-1.3649,-1.3648,0,-1.3354,-1.3365,-1.3408,-1.3432,-1.3439,-1.3466,-1.3487,-1.3511,-1.3521,-1.3555,-1.3564,-1.358,-1.3612,-1.3624,-1.3663,-1.3668,-1.3714,-1.3712,-1.3706,-1.3707,-1.3733,-1.3731,-1.3813,-1.3825,-1.3756,-1.3757,-1.3757,0,-1.3388,-1.3414,-1.3441,-1.3459,-1.3473,-1.3502,-1.352,-1.3529,-1.3548,-1.3577,-1.3598,-1.3629,-1.3655,-1.3707,-1.3722,-1.3752,-1.3752,-1.3779,-1.3757,-1.3755,-1.3755,-1.3753,-1.3757,-1.3784,-1.3785,-1.3785,-1.3786,0,-1.3447,-1.3452,-1.3478,-1.3507,-1.353,-1.3553,-1.3575,-1.359,-1.3602,-1.3624,-1.3656,-1.3677,-1.3716,-1.3748,-1.3779,-1.3793,-1.3792,-1.3792,-1.38,-1.38,-1.3796,-1.38,-1.3719,-1.3791,-1.379,-1.379,-1.379,-1.3789,-1.3489,-1.3512,-1.3536,-1.3566,-1.3583,-1.3604,-1.3628,-1.3641,-1.3669,-1.3702,-1.3705,-1.374,-1.3764,-1.3805,-1.3821,-1.3849,-1.3842,-1.3853,-1.3856,-1.3859,-1.3862,-1.379,-1.3854,-1.3854,-1.3854,-1.3854,-1.3854,0,-1.355,-1.3564,-1.3592,-1.3623,-1.3647,-1.3643,-1.3668,-1.3688,-1.372,-1.3741,-1.3767,-1.3805,-1.3836,-1.3854,-1.3886,-1.3905,-1.3905,-1.3913,-1.3912,-1.3916,-1.3866,-1.3856,-1.3912,-1.3912,-1.3912,-1.3912,-1.3912,-1.3912,-1.3584,-1.3624,-1.3631,-1.3679,-1.3694,-1.3729,-1.3743,-1.3763,-1.3781,-1.3823,-1.3849,-1.386,-1.3881,-1.3914,-1.3943,-1.3947,-1.3959,-1.3968,-1.3972,-1.3925,-1.3919,-1.3914,-1.3905,-1.397,-1.397,-1.402,-1.4021,-1.4021]}]]